Flag for Finland Weather past 2 weeks in Helsinki, Finland

Now
34 °F

Passing clouds.


Feels Like: 28 °F
Forecast: 29 / 32 °F
Wind: 7 mph from West

Location: Helsinki Malmi Airport

Current Time: Dec 21, 2014 at 1:42:51 AM

Latest Report: Dec 21, 2014 at 1:20 AM


Visibility: N/A

Pressure: 29.21 "Hg

Humidity: 87%

Dew point: 30 °F

Location of HelsinkiLocation

Historic Weather in Helsinki — Graph

°F

Helsinki temperature yesterday

Maximum temperature yesterday: 39 °F (at 12:20 AM)
Minimum temperature yesterday: 34 °F (at 6:50 AM)
Average temperature yesterday: 35 °F

Past Weeks' High & Low Weather Summary

 TemperatureHumidityPressure
High41 °F (Dec 7, 11:50 AM)100% (Dec 6, 6:20 AM)30.04 "Hg (Dec 6, 6:20 AM)
Low27 °F (Dec 17, 11:20 PM)70% (Dec 10, 9:20 PM)28.74 "Hg (Dec 13, 8:20 AM)
Average36 °F89%29.54 "Hg
* Reported Dec 6 12:20 AM — Dec 21 12:20 AM, Helsinki, Weather by CustomWeather, © 2014

Note: Actual official high and low records may vary slightly from our data, if they occured in-between our weather recording intervals... More about our weather records

Advertising

Helsinki weather history for previous 24 hours

 ConditionsComfort  
Time TempWeatherWind HumidityBarometerVisibility
12:20 AM
Dec 21
34 °FLight rain. Overcast.7 mph81%29.18 "HgN/A
11:20 PM
Dec 20
34 °FOvercast.6 mph81%29.18 "HgN/A
10:50 PM34 °FPassing clouds.7 mph81%29.18 "HgN/A
10:20 PM34 °FPassing clouds.8 mph81%29.18 "HgN/A
9:50 PM34 °FPassing clouds.7 mph81%29.15 "HgN/A
9:20 PM34 °FPassing clouds.10 mph81%29.15 "HgN/A
8:50 PM34 °FPassing clouds.8 mph81%29.12 "HgN/A
8:20 PM34 °FPassing clouds.5 mph81%29.12 "HgN/A
7:50 PM34 °FPassing clouds.6 mph75%29.12 "HgN/A
7:20 PM34 °FPassing clouds.6 mph75%29.12 "HgN/A
6:50 PM34 °FPassing clouds.6 mph75%29.12 "HgN/A
6:20 PM34 °FPassing clouds.6 mph75%29.09 "HgN/A
5:50 PM34 °FPassing clouds.6 mph81%29.09 "HgN/A
5:20 PM34 °FPassing clouds.3 mph81%29.09 "HgN/A
4:50 PM34 °FPassing clouds.3 mph87%29.09 "HgN/A
4:20 PM34 °FPassing clouds.5 mph87%29.09 "HgN/A
3:50 PM34 °FPassing clouds.5 mph81%29.09 "HgN/A
3:20 PM34 °FPassing clouds.3 mph81%29.06 "HgN/A
2:50 PM34 °FScattered clouds.5 mph75%29.06 "HgN/A
2:20 PM36 °FPartly sunny.6 mph75%29.06 "HgN/A
1:20 PM36 °FPartly sunny.8 mph75%29.06 "HgN/A
12:50 PM36 °FPartly sunny.5 mph81%29.06 "HgN/A
12:20 PM36 °FPartly sunny.5 mph81%29.06 "HgN/A
11:50 AM36 °FPartly sunny.6 mph81%29.06 "HgN/A
11:20 AM36 °FPartly sunny.9 mph81%29.06 "HgN/A
10:50 AM36 °FPartly sunny.6 mph81%29.06 "HgN/A
10:20 AM36 °FPartly sunny.5 mph81%29.06 "HgN/A
9:50 AM36 °FPartly sunny.8 mph81%29.03 "HgN/A
9:20 AM36 °FPassing clouds.6 mph81%29.03 "HgN/A
8:50 AM36 °FPassing clouds.9 mph81%29.03 "HgN/A
8:20 AM34 °FPassing clouds.7 mph87%29.03 "HgN/A
7:50 AM34 °FClear.7 mph87%29.00 "Hg10 mi
7:20 AM34 °FPassing clouds.6 mph87%29.00 "HgN/A
6:50 AM34 °FPassing clouds.5 mph87%29.00 "HgN/A
6:20 AM36 °FPartly cloudy.6 mph87%29.00 "HgN/A
5:50 AM36 °FPassing clouds.7 mph87%29.00 "HgN/A
5:20 AM36 °FPassing clouds.6 mph87%29.00 "HgN/A
4:50 AM36 °FPartly cloudy.7 mph87%29.00 "HgN/A
4:20 AM36 °FPassing clouds.6 mph87%29.00 "HgN/A
3:50 AM37 °FPassing clouds.3 mph81%29.00 "HgN/A
3:20 AM37 °FPassing clouds.7 mph81%29.00 "HgN/A
2:50 AM36 °FPassing clouds.5 mph87%29.00 "HgN/A
2:20 AM37 °FPassing clouds.5 mph81%29.00 "HgN/A
1:50 AM37 °FPassing clouds.7 mph81%29.00 "HgN/A
1:20 AM39 °FPassing clouds.10 mph70%29.00 "HgN/A
Weather by CustomWeather, © 2014

See weather overviewHow to use our weather pages